| time (UTC) | temp F | wind direction | speed MPH | gust MPH | rain 1hr in | rain 24hr in | rain mn in | humidity % | barometer mb |
| 20260903154240 | 79 | 12 | 0.0 | 0.0 | 0.00 | 0.14 | 0.14 | 81 | 1017.5 |
| 20260903153735 | 79 | 11 | 0.0 | 0.0 | 0.00 | 0.14 | 0.14 | 88 | 1017.5 |
| 20260903153231 | 79 | 12 | 0.0 | 0.0 | 0.00 | 0.14 | 0.14 | 82 | 1017.5 |
| 20260903152727 | 79 | 1 | 0.0 | 0.0 | 0.00 | 0.14 | 0.14 | 89 | 1017.4 |
| 20260903152223 | 78 | 1 | 0.0 | 0.0 | 0.00 | 0.14 | 0.14 | 84 | 1017.4 |
| 20260903151722 | 78 | 1 | 1.0 | 1.0 | 0.00 | 0.14 | 0.14 | 83 | 1017.4 |
| 20260903151218 | 78 | 0 | 0.0 | 0.0 | 0.00 | 0.14 | 0.14 | 88 | 1017.6 |
| 20260903150713 | 77 | 0 | 0.0 | 0.0 | 0.00 | 0.14 | 0.14 | 91 | 1017.6 |
| 20260903150207 | 76 | 359 | 0.0 | 0.0 | 0.00 | 0.14 | 0.14 | 92 | 1017.7 |
| 20260903145702 | 76 | 358 | 0.0 | 0.0 | 0.00 | 0.14 | 0.14 | 92 | 1017.7 |
| 20260903145157 | 75 | 359 | 0.0 | 0.0 | 0.00 | 0.14 | 0.14 | 92 | 1017.6 |
| 20260903144656 | 76 | 4 | 0.0 | 0.0 | 0.00 | 0.14 | 0.14 | 92 | 1017.8 |
| 20260903144152 | 75 | 3 | 0.0 | 0.0 | 0.00 | 0.14 | 0.14 | 91 | 1017.8 |
| 20260903143648 | 74 | 4 | 0.0 | 0.0 | 0.00 | 0.14 | 0.14 | 95 | 1017.6 |
| 20260903143143 | 74 | 2 | 0.0 | 0.0 | 0.00 | 0.14 | 0.14 | 94 | 1017.7 |
| 20260903142639 | 74 | 4 | 0.0 | 0.0 | 0.00 | 0.14 | 0.14 | 96 | 1017.7 |
| 20260903142136 | 72 | 3 | 0.0 | 0.0 | 0.00 | 0.14 | 0.14 | 95 | 1017.9 |
| 20260903141630 | 72 | 3 | 0.0 | 0.0 | 0.00 | 0.14 | 0.14 | 95 | 1018.0 |
| 20260903141125 | 72 | 358 | 0.0 | 0.0 | 0.00 | 0.14 | 0.14 | 96 | 1017.8 |
| 20260903140622 | 72 | 343 | 0.0 | 0.0 | 0.00 | 0.14 | 0.14 | 94 | 1017.6 |
| 20260903140117 | 72 | 343 | 0.0 | 0.0 | 0.00 | 0.14 | 0.14 | 95 | 1017.7 |
| 20260903135613 | 71 | 343 | 0.0 | 0.0 | 0.00 | 0.14 | 0.14 | 99 | 1017.6 |
| 20260903135112 | 72 | 343 | 0.0 | 0.0 | 0.00 | 0.14 | 0.14 | 99 | 1017.5 |
| 20260903134611 | 71 | 343 | 0.0 | 0.0 | 0.00 | 0.14 | 0.14 | 99 | 1017.4 |
| 20260903134107 | 71 | 342 | 0.0 | 0.0 | 0.00 | 0.14 | 0.14 | 99 | 1017.8 |
| 20260903133605 | 71 | 343 | 0.0 | 0.0 | 0.00 | 0.14 | 0.14 | 97 | 1017.7 |
| 20260903133101 | 71 | 343 | 0.0 | 0.0 | 0.00 | 0.14 | 0.14 | 98 | 1017.8 |
| 20260903132556 | 71 | 343 | 0.0 | 0.0 | 0.00 | 0.14 | 0.14 | 99 | 1017.7 |
| 20260903132050 | 70 | 343 | 0.0 | 0.0 | 0.00 | 0.14 | 0.14 | 99 | 1017.9 |
| 20260903131549 | 70 | 289 | 0.0 | 0.0 | 0.00 | 0.14 | 0.14 | 99 | 1017.6 |
| 20260903131044 | 69 | 12 | 0.0 | 1.0 | 0.00 | 0.14 | 0.14 | 99 | 1017.7 |
| 20260903130544 | 69 | 12 | 0.0 | 0.0 | 0.00 | 0.14 | 0.14 | 99 | 1017.5 |
| 20260903130039 | 68 | 207 | 0.0 | 0.0 | 0.00 | 0.14 | 0.14 | 99 | 1017.8 |
| 20260903125537 | 69 | 207 | 0.0 | 0.0 | 0.00 | 0.14 | 0.14 | 99 | 1017.9 |
| 20260903125033 | 69 | 208 | 0.0 | 0.0 | 0.00 | 0.14 | 0.14 | 99 | 1017.9 |
| 20260903124532 | 68 | 208 | 0.0 | 0.0 | 0.00 | 0.14 | 0.14 | 99 | 1018.0 |
| 20260903124027 | 68 | 208 | 0.0 | 0.0 | 0.00 | 0.14 | 0.14 | 99 | 1018.1 |
| 20260903123521 | 68 | 209 | 0.0 | 0.0 | 0.00 | 0.14 | 0.14 | 99 | 1018.0 |
| 20260903123020 | 68 | 209 | 0.0 | 0.0 | 0.00 | 0.14 | 0.14 | 99 | 1018.0 |
| 20260903122520 | 67 | 208 | 0.0 | 0.0 | 0.00 | 0.14 | 0.14 | 99 | 1017.8 |
| 20260903122019 | 67 | 209 | 0.0 | 0.0 | 0.00 | 0.14 | 0.14 | 99 | 1017.9 |
| 20260903121514 | 67 | 208 | 0.0 | 0.0 | 0.00 | 0.14 | 0.14 | 99 | 1017.9 |
| 20260903121010 | 67 | 209 | 0.0 | 0.0 | 0.00 | 0.14 | 0.14 | 99 | 1017.9 |
| 20260903120508 | 67 | 209 | 0.0 | 0.0 | 0.00 | 0.14 | 0.14 | 99 | 1018.1 |
| 20260903120003 | 67 | 209 | 0.0 | 0.0 | 0.00 | 0.14 | 0.14 | 99 | 1017.9 |
| 20260903115501 | 67 | 209 | 0.0 | 0.0 | 0.00 | 0.14 | 0.14 | 99 | 1018.2 |
| 20260903114956 | 67 | 209 | 0.0 | 0.0 | 0.00 | 0.14 | 0.14 | 99 | 1018.1 |
| 20260903114451 | 66 | 209 | 0.0 | 0.0 | 0.00 | 0.14 | 0.14 | 99 | 1018.2 |
| 20260903113947 | 66 | 209 | 0.0 | 0.0 | 0.00 | 0.14 | 0.14 | 99 | 1018.0 |
| 20260903113442 | 66 | 209 | 0.0 | 0.0 | 0.00 | 0.14 | 0.14 | 99 | 1018.1 |
| 20260903112938 | 66 | 209 | 0.0 | 0.0 | 0.00 | 0.14 | 0.14 | 99 | 1018.3 |
| 20260903112433 | 66 | 209 | 0.0 | 0.0 | 0.00 | 0.14 | 0.14 | 99 | 1018.2 |
| 20260903111932 | 66 | 209 | 0.0 | 0.0 | 0.00 | 0.14 | 0.14 | 99 | 1018.2 |
| 20260903111427 | 66 | 209 | 0.0 | 0.0 | 0.00 | 0.14 | 0.14 | 99 | 1018.3 |
| 20260903110924 | 66 | 209 | 0.0 | 0.0 | 0.00 | 0.14 | 0.14 | 99 | 1018.3 |
| 20260903110419 | 66 | 209 | 0.0 | 0.0 | 0.00 | 0.14 | 0.14 | 99 | 1018.4 |
| 20260903105914 | 66 | 209 | 0.0 | 0.0 | 0.00 | 0.14 | 0.14 | 99 | 1018.5 |
| 20260903105409 | 65 | 209 | 0.0 | 0.0 | 0.00 | 0.14 | 0.14 | 99 | 1018.4 |
| 20260903104908 | 65 | 209 | 0.0 | 0.0 | 0.00 | 0.14 | 0.14 | 99 | 1018.7 |
| 20260903104403 | 65 | 209 | 0.0 | 0.0 | 0.00 | 0.14 | 0.14 | 99 | 1018.6 |
| 20260903103900 | 65 | 209 | 0.0 | 0.0 | 0.00 | 0.14 | 0.14 | 99 | 1018.6 |
| 20260903103356 | 65 | 209 | 0.0 | 0.0 | 0.00 | 0.14 | 0.14 | 99 | 1018.5 |
| 20260903102850 | 65 | 209 | 0.0 | 0.0 | 0.00 | 0.14 | 0.14 | 99 | 1018.5 |
| 20260903102345 | 65 | 209 | 0.0 | 0.0 | 0.00 | 0.14 | 0.14 | 99 | 1018.5 |
| 20260903101845 | 65 | 209 | 0.0 | 0.0 | 0.00 | 0.14 | 0.14 | 99 | 1018.2 |
| 20260903101340 | 65 | 209 | 0.0 | 0.0 | 0.00 | 0.14 | 0.14 | 99 | 1018.3 |
| 20260903100835 | 65 | 209 | 0.0 | 0.0 | 0.00 | 0.14 | 0.14 | 99 | 1018.1 |
| 20260903100330 | 65 | 209 | 0.0 | 0.0 | 0.00 | 0.14 | 0.14 | 99 | 1017.9 |
| 20260903095826 | 65 | 209 | 0.0 | 0.0 | 0.00 | 0.14 | 0.14 | 99 | 1017.8 |
| 20260903095321 | 65 | 209 | 0.0 | 0.0 | 0.00 | 0.14 | 0.14 | 99 | 1017.8 |
| 20260903094816 | 65 | 209 | 0.0 | 0.0 | 0.00 | 0.14 | 0.14 | 99 | 1017.9 |
| 20260903094311 | 65 | 209 | 0.0 | 0.0 | 0.00 | 0.14 | 0.14 | 99 | 1017.7 |
| 20260903093807 | 65 | 209 | 0.0 | 0.0 | 0.00 | 0.14 | 0.14 | 99 | 1018.2 |
| 20260903093302 | 65 | 209 | 0.0 | 0.0 | 0.00 | 0.14 | 0.14 | 99 | 1018.0 |
| 20260903092802 | 65 | 209 | 0.0 | 0.0 | 0.00 | 0.14 | 0.14 | 99 | 1018.0 |
| 20260903092256 | 65 | 209 | 0.0 | 0.0 | 0.00 | 0.14 | 0.14 | 99 | 1018.1 |
| 20260903091755 | 65 | 209 | 0.0 | 0.0 | 0.00 | 0.14 | 0.14 | 99 | 1017.7 |
| 20260903091244 | 65 | 209 | 0.0 | 0.0 | 0.00 | 0.14 | 0.14 | 99 | 1017.8 |
| 20260903090740 | 65 | 209 | 0.0 | 0.0 | 0.00 | 0.14 | 0.14 | 99 | 1017.9 |
| 20260903090239 | 65 | 209 | 0.0 | 0.0 | 0.00 | 0.14 | 0.14 | 99 | 1017.9 |
| 20260903085737 | 65 | 209 | 0.0 | 0.0 | 0.00 | 0.14 | 0.14 | 99 | 1018.1 |
| 20260903085233 | 65 | 209 | 0.0 | 0.0 | 0.00 | 0.14 | 0.14 | 99 | 1018.0 |
| 20260903084730 | 65 | 209 | 0.0 | 0.0 | 0.00 | 0.14 | 0.14 | 99 | 1018.2 |
| 20260903084225 | 65 | 209 | 0.0 | 0.0 | 0.00 | 0.14 | 0.14 | 99 | 1018.1 |
| 20260903083721 | 65 | 209 | 0.0 | 0.0 | 0.00 | 0.14 | 0.14 | 99 | 1018.2 |
| 20260903083215 | 65 | 209 | 0.0 | 0.0 | 0.00 | 0.14 | 0.14 | 99 | 1018.1 |
| 20260903082709 | 65 | 209 | 0.0 | 0.0 | 0.00 | 0.14 | 0.14 | 99 | 1018.0 |
| 20260903082205 | 65 | 223 | 0.0 | 0.0 | 0.00 | 0.14 | 0.14 | 99 | 1018.4 |
| 20260903081705 | 65 | 223 | 0.0 | 0.0 | 0.00 | 0.14 | 0.14 | 99 | 1018.4 |
| 20260903081201 | 65 | 222 | 0.0 | 0.0 | 0.00 | 0.14 | 0.14 | 99 | 1018.2 |
| 20260903080657 | 65 | 2 | 0.0 | 0.0 | 0.00 | 0.14 | 0.14 | 99 | 1018.4 |
| 20260903080154 | 65 | 228 | 0.0 | 0.0 | 0.00 | 0.14 | 0.14 | 99 | 1018.3 |
| 20260903075653 | 65 | 228 | 0.0 | 0.0 | 0.00 | 0.14 | 0.14 | 99 | 1018.1 |
| 20260903075148 | 65 | 208 | 0.0 | 0.0 | 0.00 | 0.14 | 0.14 | 99 | 1018.2 |
| 20260903074647 | 64 | 208 | 0.0 | 0.0 | 0.00 | 0.14 | 0.14 | 99 | 1018.0 |
| 20260903074143 | 64 | 208 | 0.0 | 0.0 | 0.00 | 0.14 | 0.14 | 99 | 1018.0 |
| 20260903073638 | 64 | 208 | 0.0 | 0.0 | 0.00 | 0.14 | 0.14 | 99 | 1017.8 |
| 20260903073133 | 65 | 208 | 0.0 | 0.0 | 0.00 | 0.14 | 0.14 | 99 | 1017.8 |
| 20260903072629 | 65 | 208 | 0.0 | 0.0 | 0.00 | 0.14 | 0.14 | 99 | 1017.8 |
| 20260903072125 | 65 | 201 | 0.0 | 0.0 | 0.00 | 0.14 | 0.14 | 99 | 1017.9 |
| 20260903071621 | 64 | 18 | 0.0 | 0.0 | 0.00 | 0.14 | 0.14 | 99 | 1018.2 |
| 20260903071117 | 64 | 18 | 0.0 | 0.0 | 0.00 | 0.14 | 0.14 | 99 | 1017.9 |
| 20260903070611 | 64 | 18 | 0.0 | 0.0 | 0.00 | 0.14 | 0.14 | 99 | 1018.2 |
| 20260903070107 | 64 | 19 | 0.0 | 0.0 | 0.00 | 0.14 | 0.14 | 99 | 1017.9 |
| 20260903065606 | 64 | 19 | 1.0 | 1.0 | 0.00 | 0.14 | 0.14 | 99 | 1017.9 |
| 20260903065101 | 64 | 20 | 0.0 | 0.0 | 0.00 | 0.14 | 0.14 | 99 | 1018.0 |
| 20260903064601 | 64 | 20 | 0.0 | 0.0 | 0.00 | 0.14 | 0.14 | 99 | 1018.2 |
| 20260903064056 | 64 | 20 | 0.0 | 0.0 | 0.00 | 0.14 | 0.14 | 99 | 1018.2 |
| 20260903063551 | 64 | 20 | 0.0 | 0.0 | 0.00 | 0.14 | 0.14 | 99 | 1018.1 |
| 20260903063046 | 64 | 223 | 0.0 | 0.0 | 0.00 | 0.14 | 0.14 | 99 | 1018.2 |
| 20260903062542 | 64 | 302 | 0.0 | 0.0 | 0.00 | 0.14 | 0.14 | 99 | 1018.2 |
| 20260903062037 | 64 | 227 | 0.0 | 0.0 | 0.00 | 0.14 | 0.14 | 99 | 1018.2 |
| 20260903061532 | 64 | 322 | 0.0 | 0.0 | 0.00 | 0.14 | 0.14 | 99 | 1017.9 |
| 20260903061027 | 64 | 16 | 0.0 | 1.0 | 0.00 | 0.14 | 0.14 | 99 | 1018.3 |
| 20260903060526 | 64 | 18 | 0.0 | 0.0 | 0.00 | 0.14 | 0.14 | 99 | 1018.5 |
| 20260903060021 | 64 | 18 | 0.0 | 1.0 | 0.00 | 0.14 | 0.14 | 99 | 1018.6 |
| 20260903055519 | 64 | 346 | 0.0 | 0.0 | 0.00 | 0.14 | 0.14 | 99 | 1018.8 |
| 20260903055018 | 64 | 346 | 0.0 | 0.0 | 0.00 | 0.14 | 0.14 | 99 | 1018.8 |
| 20260903054513 | 64 | 346 | 0.0 | 0.0 | 0.00 | 0.14 | 0.14 | 99 | 1018.9 |
| 20260903054009 | 64 | 346 | 0.0 | 0.0 | 0.05 | 0.14 | 0.14 | 99 | 1019.4 |
| 20260903053509 | 64 | 346 | 0.0 | 0.0 | 0.05 | 0.14 | 0.14 | 99 | 1019.3 |
| 20260903053005 | 64 | 346 | 0.0 | 0.0 | 0.00 | 0.13 | 0.13 | 99 | 1019.5 |
| 20260903052501 | 64 | 346 | 0.0 | 1.0 | 0.07 | 0.13 | 0.13 | 99 | 1019.8 |
| 20260903051956 | 64 | 346 | 0.0 | 0.0 | 0.12 | 0.13 | 0.13 | 99 | 1019.6 |
| 20260903051451 | 63 | 318 | 0.0 | 1.0 | 0.12 | 0.12 | 0.12 | 99 | 1020.2 |
| 20260903050947 | 63 | 312 | 1.0 | 1.0 | 0.12 | 0.12 | 0.12 | 99 | 1020.3 |
| 20260903050445 | 63 | 2 | 0.0 | 0.0 | 0.07 | 0.11 | 0.11 | 99 | 1019.8 |
| 20260903045940 | 63 | 2 | 0.0 | 0.0 | 0.07 | 0.10 | 0.10 | 99 | 1019.7 |
| 20260903045436 | 63 | 2 | 0.0 | 1.0 | 0.12 | 0.10 | 0.10 | 99 | 1019.6 |
| 20260903044933 | 63 | 234 | 0.0 | 0.0 | 0.05 | 0.09 | 0.09 | 99 | 1019.4 |
| 20260903044433 | 63 | 274 | 0.0 | 0.0 | 0.07 | 0.08 | 0.08 | 99 | 1019.8 |
| 20260903043929 | 63 | 285 | 0.0 | 0.0 | 0.12 | 0.08 | 0.08 | 99 | 1020.3 |
| 20260903043425 | 63 | 325 | 0.0 | 1.0 | 0.12 | 0.07 | 0.07 | 99 | 1020.4 |
| 20260903042923 | 63 | 325 | 1.0 | 1.0 | 0.19 | 0.06 | 0.06 | 99 | 1020.4 |
| 20260903042419 | 63 | 328 | 0.0 | 0.0 | 0.24 | 0.05 | 0.05 | 99 | 1020.3 |
| 20260903041914 | 63 | 328 | 0.0 | 0.0 | 0.17 | 0.03 | 0.03 | 99 | 1020.8 |
| 20260903041410 | 63 | 328 | 0.0 | 0.0 | 0.05 | 0.01 | 0.01 | 99 | 1021.2 |
| 20260903040906 | 64 | 350 | 0.0 | 0.0 | 0.00 | 0.00 | 0.00 | 99 | 1021.3 |
| 20260903040405 | 64 | 350 | 0.0 | 0.0 | 0.00 | 0.00 | 0.00 | 99 | 1021.3 |
| 20260903035901 | 64 | 350 | 0.0 | 0.0 | 0.00 | 0.00 | 0.00 | 99 | 1021.4 |
| 20260903035356 | 64 | 350 | 0.0 | 0.0 | 0.00 | 0.00 | 0.00 | 99 | 1021.3 |
| 20260903034851 | 64 | 349 | 0.0 | 0.0 | 0.00 | 0.00 | 0.00 | 99 | 1021.7 |
| 20260903034346 | 64 | 349 | 0.0 | 0.0 | 0.00 | 0.00 | 0.00 | 99 | 1021.3 |
| 20260903033836 | 64 | 349 | 0.0 | 0.0 | 0.00 | 0.00 | 0.00 | 98 | 1021.0 |
| 20260903033331 | 64 | 344 | 0.0 | 0.0 | 0.00 | 0.00 | 0.00 | 99 | 1021.1 |
| 20260903032831 | 64 | 344 | 1.0 | 2.0 | 0.00 | 0.00 | 0.00 | 98 | 1020.9 |
| 20260903032327 | 64 | 344 | 0.0 | 0.0 | 0.00 | 0.00 | 0.00 | 99 | 1021.1 |
| 20260903031822 | 64 | 344 | 0.0 | 0.0 | 0.00 | 0.00 | 0.00 | 99 | 1021.2 |
| 20260903031321 | 64 | 344 | 0.0 | 0.0 | 0.00 | 0.00 | 0.00 | 98 | 1021.3 |
| 20260903030817 | 64 | 344 | 0.0 | 0.0 | 0.00 | 0.00 | 0.00 | 98 | 1021.0 |
| 20260903030313 | 64 | 344 | 0.0 | 0.0 | 0.00 | 0.00 | 0.00 | 97 | 1020.6 |
| 20260903025808 | 64 | 344 | 0.0 | 0.0 | 0.00 | 0.00 | 0.00 | 96 | 1021.0 |
| 20260903025306 | 64 | 340 | 1.0 | 1.0 | 0.00 | 0.00 | 0.00 | 98 | 1020.9 |
| 20260903024758 | 63 | 341 | 0.0 | 0.0 | 0.00 | 0.00 | 0.00 | 99 | 1020.8 |
| 20260903024258 | 63 | 341 | 0.0 | 0.0 | 0.00 | 0.00 | 0.00 | 99 | 1020.8 |
| 20260903023753 | 63 | 341 | 0.0 | 0.0 | 0.00 | 0.00 | 0.00 | 99 | 1021.1 |
| 20260903023248 | 63 | 341 | 0.0 | 0.0 | 0.00 | 0.00 | 0.00 | 99 | 1021.4 |
| 20260903022743 | 63 | 341 | 0.0 | 0.0 | 0.00 | 0.00 | 0.00 | 99 | 1021.4 |
| 20260903022242 | 63 | 341 | 0.0 | 0.0 | 0.00 | 0.00 | 0.00 | 99 | 1021.7 |
| 20260903021742 | 63 | 341 | 0.0 | 0.0 | 0.00 | 0.00 | 0.00 | 99 | 1021.9 |
| 20260903021237 | 63 | 341 | 0.0 | 0.0 | 0.00 | 0.00 | 0.00 | 99 | 1022.2 |
| 20260903020737 | 63 | 341 | 0.0 | 0.0 | 0.00 | 0.00 | 0.00 | 99 | 1022.2 |
| 20260903020231 | 63 | 341 | 0.0 | 0.0 | 0.00 | 0.00 | 0.00 | 99 | 1022.4 |
| 20260903015727 | 63 | 341 | 0.0 | 0.0 | 0.00 | 0.00 | 0.00 | 99 | 1022.4 |
| 20260903015222 | 63 | 341 | 0.0 | 0.0 | 0.00 | 0.00 | 0.00 | 99 | 1022.7 |
| 20260903014718 | 63 | 341 | 0.0 | 0.0 | 0.00 | 0.00 | 0.00 | 99 | 1022.6 |
| 20260903014217 | 63 | 341 | 0.0 | 0.0 | 0.00 | 0.00 | 0.00 | 99 | 1022.4 |
| 20260903013712 | 63 | 341 | 0.0 | 0.0 | 0.00 | 0.00 | 0.00 | 99 | 1022.2 |
| 20260903013211 | 63 | 341 | 0.0 | 0.0 | 0.00 | 0.00 | 0.00 | 99 | 1022.3 |
| 20260903012709 | 63 | 341 | 0.0 | 0.0 | 0.00 | 0.00 | 0.00 | 99 | 1022.5 |
| 20260903012204 | 64 | 341 | 0.0 | 0.0 | 0.00 | 0.00 | 0.00 | 99 | 1022.8 |
| 20260903011658 | 64 | 341 | 0.0 | 0.0 | 0.00 | 0.00 | 0.00 | 99 | 1022.9 |
| 20260903011152 | 64 | 341 | 0.0 | 0.0 | 0.00 | 0.00 | 0.00 | 99 | 1023.0 |
| 20260903010647 | 64 | 341 | 0.0 | 0.0 | 0.00 | 0.00 | 0.00 | 99 | 1022.5 |
| 20260903010146 | 64 | 341 | 0.0 | 0.0 | 0.00 | 0.00 | 0.00 | 99 | 1023.1 |
| 20260903005641 | 64 | 341 | 0.0 | 0.0 | 0.00 | 0.00 | 0.00 | 99 | 1022.9 |
| 20260903005136 | 64 | 341 | 0.0 | 0.0 | 0.00 | 0.00 | 0.00 | 98 | 1022.6 |
| 20260903004631 | 64 | 341 | 0.0 | 0.0 | 0.00 | 0.00 | 0.00 | 98 | 1022.6 |
| 20260903004126 | 64 | 341 | 0.0 | 0.0 | 0.00 | 0.00 | 0.00 | 96 | 1022.6 |
| 20260903003622 | 64 | 341 | 0.0 | 0.0 | 0.00 | 0.00 | 0.00 | 95 | 1022.1 |
| 20260903003117 | 64 | 341 | 0.0 | 0.0 | 0.00 | 0.00 | 0.00 | 93 | 1021.7 |
| 20260903002612 | 64 | 341 | 0.0 | 0.0 | 0.00 | 0.00 | 0.00 | 97 | 1021.2 |
| 20260903002106 | 64 | 341 | 0.0 | 0.0 | 0.00 | 0.00 | 0.00 | 97 | 1021.1 |
| 20260903001601 | 64 | 341 | 0.0 | 0.0 | 0.00 | 0.00 | 0.00 | 95 | 1021.3 |
| 20260903001101 | 64 | 341 | 0.0 | 0.0 | 0.00 | 0.00 | 0.00 | 97 | 1021.1 |
| 20260903000557 | 64 | 358 | 0.0 | 0.0 | 0.00 | 0.00 | 0.00 | 99 | 1021.5 |
| 20260903000056 | 64 | 358 | 0.0 | 0.0 | 0.00 | 0.00 | 0.00 | 99 | 1021.3 |
| 20260902235555 | 64 | 358 | 0.0 | 0.0 | 0.00 | 0.00 | 0.00 | 99 | 1021.7 |
| 20260902235050 | 65 | 358 | 0.0 | 0.0 | 0.00 | 0.00 | 0.00 | 99 | 1021.9 |
| 20260902234544 | 65 | 358 | 0.0 | 0.0 | 0.00 | 0.00 | 0.00 | 99 | 1022.0 |
| 20260902234043 | 65 | 358 | 0.0 | 0.0 | 0.00 | 0.00 | 0.00 | 99 | 1022.1 |
| 20260902233538 | 65 | 358 | 0.0 | 0.0 | 0.00 | 0.00 | 0.00 | 99 | 1022.3 |
| 20260902233033 | 65 | 358 | 0.0 | 0.0 | 0.00 | 0.00 | 0.00 | 99 | 1022.1 |
| 20260902232532 | 66 | 358 | 0.0 | 0.0 | 0.00 | 0.00 | 0.00 | 99 | 1022.0 |
| 20260902232026 | 66 | 358 | 0.0 | 0.0 | 0.00 | 0.00 | 0.00 | 99 | 1022.2 |
| 20260902231520 | 66 | 358 | 0.0 | 0.0 | 0.00 | 0.00 | 0.00 | 99 | 1022.4 |
| 20260902231015 | 66 | 358 | 0.0 | 0.0 | 0.00 | 0.00 | 0.00 | 99 | 1022.0 |
| 20260902230514 | 66 | 358 | 0.0 | 0.0 | 0.00 | 0.00 | 0.00 | 99 | 1022.2 |
| 20260902230009 | 67 | 358 | 0.0 | 0.0 | 0.00 | 0.00 | 0.00 | 99 | 1022.1 |
| 20260902225504 | 67 | 358 | 0.0 | 0.0 | 0.00 | 0.00 | 0.00 | 99 | 1022.5 |
| 20260902225004 | 67 | 358 | 0.0 | 0.0 | 0.00 | 0.00 | 0.00 | 99 | 1022.7 |
| 20260902224502 | 67 | 358 | 0.0 | 0.0 | 0.00 | 0.00 | 0.00 | 99 | 1022.9 |
| 20260902223954 | 67 | 358 | 0.0 | 0.0 | 0.00 | 0.00 | 0.00 | 99 | 1023.1 |
| 20260902223449 | 68 | 358 | 0.0 | 0.0 | 0.00 | 0.00 | 0.00 | 99 | 1023.0 |
| 20260902222948 | 68 | 358 | 0.0 | 0.0 | 0.00 | 0.00 | 0.00 | 99 | 1022.9 |
| 20260902222446 | 68 | 358 | 0.0 | 0.0 | 0.00 | 0.00 | 0.00 | 98 | 1023.1 |
| 20260902221941 | 68 | 358 | 0.0 | 0.0 | 0.00 | 0.00 | 0.00 | 97 | 1023.2 |
| 20260902221439 | 68 | 358 | 0.0 | 0.0 | 0.00 | 0.00 | 0.00 | 96 | 1023.0 |
| 20260902220935 | 69 | 358 | 0.0 | 0.0 | 0.00 | 0.00 | 0.00 | 96 | 1023.0 |
| 20260902220429 | 69 | 358 | 0.0 | 0.0 | 0.00 | 0.00 | 0.00 | 97 | 1022.8 |
| 20260902215925 | 69 | 358 | 0.0 | 0.0 | 0.00 | 0.00 | 0.00 | 98 | 1022.8 |
| 20260902215420 | 68 | 358 | 0.0 | 0.0 | 0.00 | 0.00 | 0.00 | 96 | 1023.0 |
| 20260902214916 | 68 | 358 | 0.0 | 0.0 | 0.00 | 0.00 | 0.00 | 97 | 1022.8 |
| 20260902214415 | 68 | 358 | 0.0 | 0.0 | 0.00 | 0.00 | 0.00 | 97 | 1023.2 |
| 20260902213909 | 68 | 358 | 1.0 | 1.0 | 0.00 | 0.00 | 0.00 | 92 | 1023.2 |
| 20260902213406 | 68 | 358 | 0.0 | 0.0 | 0.00 | 0.00 | 0.00 | 93 | 1023.6 |
| 20260902212904 | 68 | 358 | 0.0 | 0.0 | 0.00 | 0.00 | 0.00 | 96 | 1023.7 |
| 20260902212400 | 68 | 358 | 0.0 | 0.0 | 0.00 | 0.00 | 0.00 | 94 | 1023.6 |
| 20260902211857 | 69 | 295 | 0.0 | 0.0 | 0.00 | 0.00 | 0.00 | 96 | 1023.2 |
| 20260902211352 | 69 | 295 | 0.0 | 0.0 | 0.00 | 0.00 | 0.00 | 96 | 1023.0 |
| 20260902210847 | 69 | 295 | 0.0 | 0.0 | 0.00 | 0.00 | 0.00 | 95 | 1023.2 |
| 20260902210346 | 69 | 295 | 0.0 | 0.0 | 0.00 | 0.00 | 0.00 | 94 | 1023.0 |
| 20260902205845 | 69 | 295 | 0.0 | 0.0 | 0.00 | 0.00 | 0.00 | 93 | 1023.2 |
| 20260902205339 | 69 | 295 | 1.0 | 2.0 | 0.00 | 0.00 | 0.00 | 88 | 1023.1 |
| 20260902204835 | 69 | 215 | 2.0 | 2.0 | 0.00 | 0.00 | 0.00 | 89 | 1023.1 |
| 20260902204329 | 69 | 216 | 1.0 | 2.0 | 0.00 | 0.00 | 0.00 | 90 | 1022.8 |
| 20260902203825 | 69 | 250 | 0.0 | 0.0 | 0.00 | 0.00 | 0.00 | 94 | 1023.1 |
| 20260902203320 | 69 | 250 | 0.0 | 0.0 | 0.00 | 0.00 | 0.00 | 94 | 1023.3 |
| 20260902202819 | 69 | 250 | 0.0 | 0.0 | 0.00 | 0.00 | 0.00 | 92 | 1023.1 |
| 20260902202316 | 68 | 211 | 0.0 | 0.0 | 0.00 | 0.00 | 0.00 | 90 | 1023.1 |
| 20260902201812 | 68 | 221 | 1.0 | 1.0 | 0.00 | 0.00 | 0.00 | 87 | 1022.8 |
| 20260902201307 | 68 | 16 | 2.0 | 2.0 | 0.00 | 0.00 | 0.00 | 88 | 1023.2 |
| 20260902200803 | 69 | 306 | 1.0 | 1.0 | 0.00 | 0.00 | 0.00 | 89 | 1023.1 |
| 20260902200257 | 69 | 202 | 0.0 | 0.0 | 0.00 | 0.00 | 0.00 | 93 | 1023.1 |
| 20260902195753 | 69 | 206 | 2.0 | 3.0 | 0.00 | 0.00 | 0.00 | 88 | 1023.1 |
| 20260902195252 | 69 | 214 | 0.0 | 1.0 | 0.00 | 0.00 | 0.00 | 89 | 1022.9 |
| 20260902194752 | 69 | 209 | 0.0 | 0.0 | 0.00 | 0.00 | 0.00 | 89 | 1023.0 |
| 20260902194247 | 68 | 348 | 0.0 | 0.0 | 0.00 | 0.00 | 0.00 | 93 | 1023.1 |
| 20260902193743 | 68 | 348 | 0.0 | 0.0 | 0.00 | 0.00 | 0.00 | 93 | 1023.3 |
| 20260902193238 | 68 | 347 | 0.0 | 0.0 | 0.00 | 0.00 | 0.00 | 94 | 1023.2 |
| 20260902192737 | 67 | 346 | 1.0 | 1.0 | 0.00 | 0.00 | 0.00 | 89 | 1023.4 |
| 20260902192236 | 68 | 214 | 1.0 | 2.0 | 0.00 | 0.00 | 0.00 | 87 | 1023.3 |
| 20260902191731 | 68 | 192 | 2.0 | 2.0 | 0.00 | 0.00 | 0.00 | 87 | 1023.4 |
| 20260902191231 | 68 | 304 | 0.0 | 0.0 | 0.00 | 0.00 | 0.00 | 90 | 1023.2 |
| 20260902190726 | 69 | 354 | 1.0 | 2.0 | 0.00 | 0.00 | 0.00 | 87 | 1023.4 |
| 20260902190220 | 68 | 313 | 1.0 | 1.0 | 0.00 | 0.00 | 0.00 | 89 | 1023.3 |
| 20260902185716 | 68 | 356 | 1.0 | 2.0 | 0.00 | 0.00 | 0.00 | 90 | 1023.1 |
| 20260902185212 | 68 | 210 | 1.0 | 2.0 | 0.00 | 0.00 | 0.00 | 88 | 1023.5 |
| 20260902184712 | 68 | 188 | 1.0 | 1.0 | 0.00 | 0.00 | 0.00 | 88 | 1023.2 |
| 20260902184208 | 68 | 352 | 0.0 | 0.0 | 0.00 | 0.00 | 0.00 | 90 | 1023.1 |
| 20260902183704 | 68 | 64 | 0.0 | 0.0 | 0.00 | 0.00 | 0.00 | 93 | 1023.4 |
| 20260902183200 | 67 | 205 | 1.0 | 1.0 | 0.00 | 0.00 | 0.00 | 92 | 1023.5 |
| 20260902182656 | 67 | 3 | 1.0 | 1.0 | 0.00 | 0.00 | 0.00 | 92 | 1023.7 |
| 20260902182152 | 66 | 9 | 0.0 | 0.0 | 0.00 | 0.00 | 0.00 | 92 | 1023.8 |
| 20260902181648 | 66 | 356 | 0.0 | 0.0 | 0.00 | 0.00 | 0.00 | 97 | 1023.8 |
| 20260902181147 | 66 | 359 | 0.0 | 0.0 | 0.00 | 0.00 | 0.00 | 99 | 1023.9 |
| 20260902180642 | 66 | 358 | 0.0 | 0.0 | 0.00 | 0.00 | 0.00 | 97 | 1023.8 |
| 20260902180138 | 67 | 357 | 0.0 | 0.0 | 0.00 | 0.00 | 0.00 | 98 | 1024.4 |
| 20260902175638 | 67 | 357 | 0.0 | 0.0 | 0.00 | 0.00 | 0.00 | 97 | 1024.2 |
| 20260902175134 | 67 | 357 | 0.0 | 0.0 | 0.00 | 0.00 | 0.00 | 94 | 1024.1 |
| 20260902174630 | 67 | 357 | 0.0 | 0.0 | 0.00 | 0.00 | 0.00 | 93 | 1023.8 |
| 20260902174125 | 67 | 357 | 0.0 | 0.0 | 0.00 | 0.00 | 0.00 | 93 | 1023.9 |
| 20260902173620 | 68 | 357 | 0.0 | 0.0 | 0.00 | 0.00 | 0.00 | 92 | 1023.8 |
| 20260902173116 | 69 | 217 | 0.0 | 0.0 | 0.00 | 0.00 | 0.00 | 94 | 1023.9 |
| 20260902172615 | 69 | 216 | 0.0 | 0.0 | 0.00 | 0.00 | 0.00 | 89 | 1023.9 |
| 20260902172109 | 69 | 215 | 0.0 | 0.0 | 0.00 | 0.00 | 0.00 | 94 | 1023.9 |
| 20260902171605 | 69 | 215 | 0.0 | 0.0 | 0.00 | 0.00 | 0.00 | 92 | 1024.0 |
| 20260902171101 | 68 | 206 | 1.0 | 1.0 | 0.00 | 0.00 | 0.00 | 84 | 1024.1 |
| 20260902170556 | 69 | 312 | 1.0 | 1.0 | 0.00 | 0.00 | 0.00 | 85 | 1024.2 |
| 20260902170052 | 69 | 253 | 0.0 | 0.0 | 0.00 | 0.00 | 0.00 | 88 | 1024.1 |
| 20260902165551 | 69 | 339 | 0.0 | 0.0 | 0.00 | 0.00 | 0.00 | 90 | 1024.4 |
| 20260902165046 | 68 | 346 | 0.0 | 1.0 | 0.00 | 0.00 | 0.00 | 88 | 1024.2 |
| 20260902164541 | 68 | 341 | 0.0 | 0.0 | 0.00 | 0.00 | 0.00 | 88 | 1024.3 |
| 20260902164040 | 68 | 341 | 0.0 | 0.0 | 0.00 | 0.00 | 0.00 | 86 | 1024.2 |
| 20260902163536 | 68 | 11 | 0.0 | 0.0 | 0.00 | 0.00 | 0.00 | 91 | 1024.3 |
| 20260902163033 | 68 | 340 | 0.0 | 0.0 | 0.00 | 0.00 | 0.00 | 91 | 1024.5 |
| 20260902162528 | 68 | 341 | 0.0 | 0.0 | 0.00 | 0.00 | 0.00 | 93 | 1024.5 |
| 20260902162023 | 67 | 346 | 0.0 | 0.0 | 0.00 | 0.00 | 0.00 | 90 | 1024.4 |
| 20260902161518 | 67 | 358 | 0.0 | 0.0 | 0.00 | 0.00 | 0.00 | 91 | 1024.4 |
| 20260902161014 | 67 | 231 | 2.0 | 2.0 | 0.00 | 0.00 | 0.00 | 87 | 1024.4 |
| 20260902160510 | 67 | 295 | 0.0 | 0.0 | 0.00 | 0.00 | 0.00 | 86 | 1024.6 |
| 20260902160010 | 68 | 338 | 1.0 | 1.0 | 0.00 | 0.00 | 0.00 | 88 | 1024.4 |
| 20260902155503 | 68 | 343 | 0.0 | 0.0 | 0.00 | 0.00 | 0.00 | 94 | 1024.6 |
| 20260902155002 | 68 | 345 | 0.0 | 0.0 | 0.00 | 0.00 | 0.00 | 95 | 1024.4 |
| 20260902154457 | 67 | 343 | 0.0 | 1.0 | 0.00 | 0.00 | 0.00 | 86 | 1024.4 |